ATLAS 5 CENTAUR DEB, 43999

Orbit data source: Space-Track

ATLAS 5 CENTAUR DEB, 43999 is space debris in HEO originally from a launch on Wed, 17 Sep 2014 UTC launched from the Air Force Eastern Test Range (AFETR). Debris objects in space refer to the collection of defunct objects orbiting the Earth. Examples of debris include non-operational satellites, rocket bodies, and fragments generated from explosions, collisions, or faulty payload assembly.

Loading next visibility...
Identifier
43999, 2014-055BE
Orbit
HEO
Country
Flag of USUS
Related business
Flag of USUnited Launch Alliance/Lockheed Martin (US)
Manufacturer
Unknown
Mission
Spacecraft
Bus & Motor
Unknown
Mass
Unknown
Launch date (UTC)
2014-09-17 (12 years ago)
Launch vehicle
Unknown
Launch site
Air Force Eastern Test Range (AFETR)
Object type
Payload
Rocket body
Debris
Shape & HBR
Unknown shape, 1.1 m
Radar Cross Section
Medium (>0.1 m² and <1 m²)

Expand to show TLE details & history
Last TLE update: 3 days ago

TLE from 3 days ago
0 ATLAS 5 CENTAUR DEB
1 43999U 14055BE  26170.33143220 -.00000046  00000-0  00000-0 0  9994
2 43999  19.9873 150.2591 4722893 154.6073 239.1586  1.85334987 52747
Epoch: 2026-06-19T07:57Z
TLE epoch observation values (Epoch: 2026-06-19T07:57:15.742Z)
Latitude
-0.00003°
Longitude
123.36214°
Altitude
31,541.342 km
Speed
2.605 km/s
True Right ascension
10h 00m 57s
True Declination
0° 00' 00"
Sunlit
Object was in daylight at epoch
Visualization orbit readout
Latitude
Unknown
Longitude
Unknown
Altitude
Unknown
Speed
Unknown
Apparent Right ascension
Unknown
Apparent Declination
Unknown
Sunlit
N/A
Visualization observer readout
Local Sidereal Time
21:58:18
Azimuth
Unknown
Elevation
Unknown
Doppler factor
Unknown
Orbital elements
Apogee altitude
34,842.976 km
Perigee altitude
8,396.692 km
Semi-major axis
27,997.971 km
Eccentricity
0.47229
Inclination
19.9873°
RAAN
150.2591°
Arg. of periapsis
154.6073°
True anomaly
205.42879°
Mean anomaly
239.1586°
Eccentric anomaly
221.29914°
Mean motion
0.46329 °/min
Orbital period
777.05 mins
BSTAR
0
Loading maneuver chart data...
Computing Atmospheric mass density...

Documentation

Showing up to 5 results
|